7 * 24
多渠道服务支持
YAOGAN-43 O1C 是中国研制的一颗遥感卫星,主要用于科学实验和国土资源探测。该卫星属于遥感四十三号系列,具备高分辨率成像能力,能够获取地球表面的详细图像数据,服务于环境监测、农业评估、灾害预警等多个领域。卫星由长征系列运载火箭发射入轨,体现了中国在遥感技术和航天工程方面的持续进步。
中国
(CN)
| 数据来源 | 国际轨道数据 |
| 星历时间: | 2025-10-29T01:14:37+0800 13小时前 查看轨道信息 |
| 半长轴: | 6873.933km |
| 偏心率: | 0.0005866 |
| 轨道倾角: | 35.000° |
| 近地点辐角 | 276.238° |
| 升交点赤经 | 178.599° |
| 平近点角 | 83.766° |
| 近地点: | 491.765km |
| 远地点: | 499.831km |
| 周期: | 94.530分钟 |
| 每日圈数: | 15.233329 |